Weather History for EGPK - March, 2013

Change the Weather History Date:

Friday, March 1, 2013

  Actual Average Record
Temperature  
Mean Temperature 41 °F -  
Max Temperature 50 °F 48 °F 57 °F (2012)
Min Temperature 32 °F 36 °F 17 °F (2001)
Degree Days  
Heating Degree Days 24    
Moisture  
Dew Point 35 °F    
Average Humidity 80    
Maximum Humidity 100    
Minimum Humidity 58    
Precipitation  
Precipitation 0.00 in - - ()
Sea Level Pressure  
Sea Level Pressure 30.52 in    
Wind  
Wind Speed 3 mph ()    
Max Wind Speed 8 mph    
Max Gust Speed -    
Visibility 6.2 miles    
Events      
Averages and records for this station are not official NWS values.
T = Trace of Precipitation, MM = Missing Value Source: Averaged Metar Reports

Daily Weather History Graph

Daily Weather History Graph

Search for Another Location

Airport or City:

Trip Planner

Search our weather history database for the weather conditions in past years. The results will help you decide how hot, cold, wet, or windy it might be!

Date:

Astronomy

Mar. 01, 2013 Rise Set
Actual Time 7:08 AM GMT 5:53 PM GMT
Civil Twilight 6:31 AM GMT 6:30 PM GMT
Nautical Twilight 5:49 AM GMT 7:12 PM GMT
Astronomical Twilight 5:06 AM GMT 7:55 PM GMT
Moon 11:06 PM GMT (3/1) 7:58 AM GMT (3/1)
Length of Visible Light 11h 58m
Length of Day
10h 44m
Waning Gibbous, 85% of the Moon is Illuminated
Mar 1
Waning Gibbous
Mar 4
Last Quarter
Mar 11
New
Mar 19
First Quarter
Mar 27
Full

Hourly Weather History & Observations

Time (GMT) Temp. Windchill Dew Point Humidity Pressure Visibility Wind Dir Wind Speed Gust Speed Precip Events Conditions
12:50 AM 42.8 °F - 39.2 °F 87% 30.54 in 6.2 mi Variable 2.3 mph - N/A   Mostly Cloudy
1:50 AM 42.8 °F - 39.2 °F 87% 30.54 in 6.2 mi NE 2.3 mph - N/A   Mostly Cloudy
2:50 AM 41.0 °F - 37.4 °F 87% 30.54 in 6.2 mi Variable 2.3 mph - N/A   Mostly Cloudy
3:50 AM 37.4 °F 33.8 °F 35.6 °F 93% 30.51 in 6.2 mi SW 4.6 mph - N/A   Mostly Cloudy
4:50 AM 35.6 °F - 33.8 °F 93% 30.54 in 6.2 mi Calm Calm - N/A   Scattered Clouds
5:50 AM 33.8 °F 30.8 °F 32.0 °F 93% 30.54 in 6.2 mi SE 3.5 mph - N/A   Mostly Cloudy
6:20 AM 33.8 °F - 32.0 °F 93% 30.54 in 6.2 mi ENE 2.3 mph - N/A   Scattered Clouds
6:50 AM 33.8 °F - 32.0 °F 93% 30.54 in 6.2 mi Calm Calm - N/A   Scattered Clouds
7:20 AM 32.0 °F - 32.0 °F 100% 30.54 in 6.2 mi Calm Calm - N/A   Partly Cloudy
7:50 AM 33.8 °F - 32.0 °F 93% 30.54 in 6.2 mi Calm Calm - N/A   Partly Cloudy
8:20 AM 35.6 °F - 33.8 °F 93% 30.54 in 6.2 mi Calm Calm - N/A   Scattered Clouds
8:50 AM 37.4 °F - 35.6 °F 93% 30.57 in 6.2 mi Calm Calm - N/A   Mostly Cloudy
9:20 AM 41.0 °F 38.0 °F 37.4 °F 87% 30.57 in 6.2 mi East 4.6 mph - N/A   Mostly Cloudy
9:50 AM 44.6 °F 43.1 °F 37.4 °F 76% 30.57 in 6.2 mi East 3.5 mph - N/A   Scattered Clouds
10:20 AM 46.4 °F 44.3 °F 35.6 °F 66% 30.57 in 6.2 mi East 4.6 mph - N/A   Partly Cloudy
10:50 AM 46.4 °F 43.5 °F 35.6 °F 66% 30.57 in 6.2 mi East 5.8 mph - N/A   Partly Cloudy
11:20 AM 46.4 °F 45.2 °F 35.6 °F 66% 30.57 in 6.2 mi East 3.5 mph - N/A   Partly Cloudy
11:50 AM 48.2 °F - 35.6 °F 62% 30.54 in 6.2 mi Variable 3.5 mph - N/A   Partly Cloudy
12:20 PM 50.0 °F - 35.6 °F 58% 30.54 in 6.2 mi Variable 2.3 mph - N/A   Partly Cloudy
12:50 PM 50.0 °F - 35.6 °F 58% 30.54 in 6.2 mi Calm Calm - N/A   Partly Cloudy
1:20 PM 48.2 °F - 35.6 °F 62% 30.54 in 6.2 mi Variable 2.3 mph - N/A   Partly Cloudy
1:50 PM 50.0 °F - 37.4 °F 62% 30.51 in 6.2 mi West 6.9 mph - N/A   Partly Cloudy
2:20 PM 50.0 °F - 35.6 °F 58% 30.51 in 6.2 mi WNW 4.6 mph - N/A   Partly Cloudy
2:50 PM 50.0 °F - 37.4 °F 62% 30.51 in 6.2 mi West 6.9 mph - N/A   Partly Cloudy
3:20 PM 48.2 °F - 35.6 °F 62% 30.51 in - West 8.1 mph - N/A   Clear
3:50 PM 48.2 °F - 35.6 °F 62% 30.51 in - West 6.9 mph - N/A   Clear
4:20 PM 48.2 °F - 35.6 °F 62% 30.48 in - West 6.9 mph - N/A   Clear
4:50 PM 46.4 °F 43.5 °F 35.6 °F 66% 30.48 in - West 5.8 mph - N/A   Clear
5:20 PM 44.6 °F 41.4 °F 35.6 °F 71% 30.48 in - West 5.8 mph - N/A   Clear
5:50 PM 44.6 °F 43.1 °F 35.6 °F 71% 30.48 in - West 3.5 mph - N/A   Clear
6:20 PM 42.8 °F 40.1 °F 35.6 °F 76% 30.48 in - WSW 4.6 mph - N/A   Clear
6:50 PM 41.0 °F - 35.6 °F 81% 30.48 in - Calm Calm - N/A   Clear
7:20 PM 37.4 °F - 33.8 °F 87% 30.48 in - Calm Calm - N/A   Clear
7:50 PM 35.6 °F 32.8 °F 32.0 °F 87% 30.48 in - SE 3.5 mph - N/A   Clear
8:20 PM 35.6 °F 31.7 °F 32.0 °F 87% 30.48 in - ESE 4.6 mph - N/A   Clear
8:50 PM 35.6 °F 32.8 °F 32.0 °F 87% 30.48 in - ESE 3.5 mph - N/A   Clear
9:20 PM 35.6 °F 31.7 °F 32.0 °F 87% 30.48 in - ESE 4.6 mph - N/A   Clear
9:50 PM 33.8 °F - 32.0 °F 93% 30.48 in - East 2.3 mph - N/A   Clear
10:20 PM 33.8 °F 30.8 °F 32.0 °F 93% 30.48 in - East 3.5 mph - N/A   Clear
10:50 PM 33.8 °F 30.8 °F 32.0 °F 93% 30.48 in - East 3.5 mph - N/A   Clear
11:20 PM 32.0 °F - 30.2 °F 93% 30.48 in - Calm Calm - N/A   Clear
11:50 PM 32.0 °F 28.7 °F 30.2 °F 93% 30.48 in - ESE 3.5 mph - N/A   Clear